GAOFEN DUOMO (GFDM)

导读 | 星芒AI

GFDM(高分多模)卫星是中国高分辨率对地观测系统的重要组成部分,具备多模式、多光谱和高分辨率成像能力。该卫星主要用于国土监测、城市规划、灾害预警和环境评估等领域,提供高精度遥感数据支持。其灵活的任务配置和先进的传感器技术,提升了中国在遥感应用方面的自主能力和技术水平,为国家资源管理和应急响应提供了有力保障。

基本信息
目录编号:
45856
目录名称:
GAOFEN DUOMO (GFDM)
国际标识:
2020-042A
轨道中心:
EARTH
卫星名称:
GAOFEN DUOMO (GFDM)
卫星全名:
--
卫星状态:
在轨 (已飞行1944 天)
发射日期:
2020-07-03 UTC
国别 :
中国 (CN)
星等 :
--
轨道信息
数据来源 国际轨道数据
星历时间: 2025-10-28T23:01:43+0800
15小时前
查看轨道信息
半长轴: 7017.215km
偏心率: 0.0013062
轨道倾角: 97.809°
近地点辐角 101.153°
升交点赤经 4.519°
平近点角 259.115°
近地点: 629.914km
远地点: 648.246km
周期: 97.501分钟
每日圈数: 14.769153
详细信息
使用方式:
暂无
2D轨道图
3D轨道图
轨道高度分析图
轨道倾角分析图
轨道综合分析图
查看轨道综合分析图